timestamp,wind_dir_avg,wind_spd_avg,wind_spd_max_dir,wind_spd_gust,battery_voltage,lat,long
2023-03-17 00:04:00+00:00,71.0,10.14,68.0,11.7,12.33,47.59359,-54.27349
2023-03-17 00:14:00+00:00,63.0,9.85,67.0,11.61,12.33,47.59359,-54.27349
2023-03-17 00:24:00+00:00,65.0,9.3,72.0,11.42,12.33,47.59359,-54.27349
2023-03-17 00:34:00+00:00,68.0,9.68,75.0,11.26,12.33,47.59359,-54.27349
2023-03-17 00:44:00+00:00,68.0,10.14,69.0,11.58,12.33,47.59359,-54.27349
2023-03-17 00:54:00+00:00,67.0,9.44,67.0,10.81,12.33,47.59359,-54.27349
2023-03-17 01:04:00+00:00,68.0,9.12,73.0,11.35,12.33,47.59359,-54.27349
2023-03-17 01:14:00+00:00,70.0,8.91,76.0,10.95,12.25,47.59359,-54.27349
2023-03-17 01:24:00+00:00,74.0,9.52,76.0,11.22,12.25,47.59359,-54.27349
2023-03-17 01:34:00+00:00,70.0,9.23,74.0,11.12,12.25,47.59359,-54.27349
2023-03-17 01:44:00+00:00,69.0,8.91,75.0,10.96,12.25,47.59359,-54.27349
2023-03-17 01:54:00+00:00,65.0,9.45,61.0,10.59,12.25,47.59359,-54.27349
2023-03-17 02:04:00+00:00,66.0,9.13,70.0,11.2,12.25,47.59359,-54.27349
2023-03-17 02:14:00+00:00,65.0,9.27,65.0,11.44,12.25,47.59359,-54.27349
2023-03-17 02:24:00+00:00,67.0,9.22,67.0,10.91,12.25,47.59359,-54.27349
2023-03-17 02:34:00+00:00,68.0,9.61,73.0,10.96,12.25,47.59359,-54.27349
2023-03-17 02:44:00+00:00,67.0,9.27,69.0,11.06,12.25,47.59359,-54.27349
2023-03-17 02:54:00+00:00,62.0,8.97,65.0,11.17,12.25,47.59359,-54.27349
2023-03-17 03:04:00+00:00,64.0,9.13,68.0,11.15,12.25,47.59359,-54.27349
2023-03-17 03:14:00+00:00,63.0,9.27,61.0,11.27,12.25,47.59359,-54.27349
2023-03-17 03:24:00+00:00,58.0,8.97,59.0,10.43,12.25,47.59359,-54.27349
2023-03-17 03:34:00+00:00,58.0,9.41,62.0,10.91,12.25,47.59359,-54.27349
2023-03-17 03:44:00+00:00,56.0,9.37,67.0,10.8,12.25,47.59359,-54.27349
2023-03-17 03:54:00+00:00,60.0,9.98,61.0,11.37,12.25,47.59359,-54.27349
2023-03-17 04:04:00+00:00,55.0,9.89,59.0,11.34,12.25,47.59359,-54.27349
2023-03-17 04:14:00+00:00,54.0,9.84,58.0,11.36,12.17,47.59359,-54.27349
2023-03-17 04:24:00+00:00,55.0,10.07,56.0,11.48,12.17,47.59359,-54.27349
2023-03-17 04:34:00+00:00,57.0,10.21,59.0,11.44,12.17,47.59359,-54.27349
2023-03-17 04:44:00+00:00,47.0,10.45,48.0,11.59,12.17,47.59359,-54.27349
2023-03-17 04:54:00+00:00,48.0,10.19,52.0,11.58,12.17,47.59359,-54.27349
2023-03-17 05:04:00+00:00,48.0,10.42,54.0,12.07,12.17,47.59359,-54.27349
2023-03-17 05:14:00+00:00,47.0,10.39,46.0,11.61,12.17,47.59359,-54.27349
2023-03-17 05:24:00+00:00,50.0,10.17,59.0,11.66,12.17,47.59359,-54.27349
2023-03-17 05:34:00+00:00,50.0,10.88,51.0,12.42,12.17,47.59359,-54.27349
2023-03-17 05:44:00+00:00,55.0,10.8,58.0,12.4,12.17,47.59359,-54.27349
2023-03-17 05:54:00+00:00,52.0,10.7,54.0,12.37,12.17,47.59359,-54.27349
2023-03-17 06:04:00+00:00,55.0,11.15,56.0,12.31,12.17,47.59359,-54.27349
2023-03-17 06:14:00+00:00,48.0,10.59,56.0,12.37,12.17,47.59359,-54.27349
2023-03-17 06:24:00+00:00,49.0,10.42,58.0,12.06,12.17,47.59359,-54.27349
2023-03-17 06:34:00+00:00,45.0,10.31,44.0,11.43,12.17,47.59359,-54.27349
2023-03-17 06:44:00+00:00,48.0,10.42,50.0,11.97,12.17,47.59359,-54.27349
2023-03-17 06:54:00+00:00,49.0,10.68,45.0,12.2,12.17,47.59359,-54.27349
2023-03-17 07:04:00+00:00,53.0,11.19,55.0,12.46,12.17,47.59359,-54.27349
2023-03-17 07:14:00+00:00,52.0,11.25,50.0,12.8,12.09,47.59359,-54.27349
2023-03-17 07:24:00+00:00,48.0,10.33,55.0,12.43,12.09,47.59359,-54.27349
2023-03-17 07:34:00+00:00,46.0,10.93,44.0,11.87,12.09,47.59359,-54.27349
2023-03-17 07:44:00+00:00,47.0,10.79,42.0,12.18,12.09,47.59359,-54.27349
2023-03-17 07:54:00+00:00,48.0,10.82,48.0,12.32,12.09,47.59359,-54.27349
2023-03-17 08:04:00+00:00,49.0,11.13,54.0,12.66,12.09,47.59359,-54.27349
2023-03-17 08:14:00+00:00,44.0,10.62,56.0,12.15,12.09,47.59359,-54.27349
2023-03-17 08:24:00+00:00,50.0,11.2,55.0,12.62,12.09,47.59359,-54.27349
2023-03-17 08:34:00+00:00,51.0,11.02,52.0,12.37,12.09,47.59359,-54.27349
2023-03-17 08:44:00+00:00,46.0,11.45,52.0,12.95,12.09,47.59359,-54.27349
2023-03-17 08:54:00+00:00,46.0,11.57,47.0,12.81,12.09,47.59359,-54.27349
2023-03-17 09:04:00+00:00,33.0,9.05,42.0,11.78,12.09,47.59359,-54.27349
2023-03-17 09:14:00+00:00,34.0,8.09,49.0,10.21,12.09,47.59359,-54.27349
2023-03-17 09:24:00+00:00,27.0,8.54,30.0,9.99,12.09,47.59359,-54.27349
2023-03-17 09:34:00+00:00,30.0,9.57,39.0,11.94,12.09,47.59359,-54.27349
2023-03-17 09:44:00+00:00,32.0,9.62,47.0,12.36,12.09,47.59359,-54.27349
2023-03-17 09:54:00+00:00,32.0,9.12,44.0,11.03,12.09,47.59359,-54.27349
2023-03-17 10:04:00+00:00,41.0,10.47,47.0,12.41,12.09,47.59359,-54.27349
2023-03-17 10:14:00+00:00,42.0,12.12,47.0,13.38,12.09,47.59359,-54.27349
2023-03-17 10:24:00+00:00,43.0,11.96,48.0,13.39,12.09,47.59359,-54.27349
2023-03-17 10:34:00+00:00,43.0,10.72,42.0,12.96,12.09,47.59359,-54.27349
2023-03-17 10:44:00+00:00,42.0,10.85,48.0,12.94,12.09,47.59359,-54.27349
2023-03-17 10:54:00+00:00,39.0,11.56,42.0,13.22,12.09,47.59359,-54.27349
2023-03-17 11:04:00+00:00,38.0,12.4,40.0,13.95,12.09,47.59359,-54.27349
2023-03-17 11:14:00+00:00,42.0,11.77,41.0,13.38,12.41,47.59359,-54.27349
2023-03-17 11:24:00+00:00,41.0,11.42,44.0,13.1,12.41,47.59359,-54.27349
2023-03-17 11:34:00+00:00,38.0,10.71,47.0,12.96,12.41,47.59359,-54.27349
2023-03-17 11:44:00+00:00,40.0,10.21,47.0,12.72,12.41,47.59359,-54.27349
2023-03-17 11:54:00+00:00,29.0,8.07,32.0,9.36,12.41,47.59359,-54.27349
2023-03-17 12:04:00+00:00,23.0,8.52,25.0,9.36,12.41,47.59359,-54.27349
2023-03-17 12:14:00+00:00,26.0,9.48,42.0,11.07,13.6,47.59359,-54.27349
2023-03-17 12:24:00+00:00,27.0,9.96,42.0,12.36,13.6,47.59359,-54.27349
2023-03-17 12:34:00+00:00,24.0,10.16,21.0,11.42,13.6,47.59359,-54.27349
2023-03-17 12:44:00+00:00,26.0,9.63,44.0,10.95,13.6,47.59359,-54.27349
2023-03-17 12:54:00+00:00,33.0,9.14,41.0,10.94,13.6,47.59359,-54.27349
2023-03-17 13:04:00+00:00,29.0,8.0,29.0,8.8,13.6,47.59359,-54.27349
2023-03-17 13:14:00+00:00,28.0,8.72,37.0,10.04,13.76,47.59359,-54.27349
2023-03-17 13:24:00+00:00,27.0,8.85,22.0,9.45,13.76,47.59359,-54.27349
2023-03-17 13:34:00+00:00,27.0,9.25,40.0,11.01,13.76,47.59359,-54.27349
2023-03-17 13:44:00+00:00,19.0,7.05,24.0,8.43,13.76,47.59359,-54.27349
2023-03-17 13:54:00+00:00,14.0,7.08,22.0,8.31,13.76,47.59359,-54.27349
2023-03-17 14:04:00+00:00,12.0,7.41,4.0,8.82,13.76,47.59359,-54.27349
2023-03-17 14:14:00+00:00,12.0,7.98,8.0,9.61,13.68,47.59359,-54.27349
2023-03-17 14:24:00+00:00,10.0,8.82,16.0,10.38,13.68,47.59359,-54.27349
2023-03-17 14:34:00+00:00,11.0,7.26,14.0,8.7,13.68,47.59359,-54.27349
2023-03-17 14:44:00+00:00,7.0,6.9,4.0,8.46,13.68,47.59359,-54.27349
2023-03-17 14:54:00+00:00,10.0,8.91,16.0,10.21,13.68,47.59359,-54.27349
2023-03-17 15:04:00+00:00,16.0,7.6,21.0,8.84,13.68,47.59359,-54.27349
2023-03-17 15:14:00+00:00,11.0,7.87,21.0,8.95,13.76,47.59359,-54.27349
2023-03-17 15:24:00+00:00,4.0,7.66,4.0,9.19,13.76,47.59359,-54.27349
2023-03-17 15:34:00+00:00,3.0,7.93,5.0,9.06,13.76,47.59359,-54.27349
2023-03-17 15:44:00+00:00,9.0,7.33,9.0,8.78,13.76,47.59359,-54.27349
2023-03-17 15:54:00+00:00,8.0,6.3,2.0,8.01,13.76,47.59359,-54.27349
2023-03-17 16:04:00+00:00,11.0,7.54,11.0,8.78,13.76,47.59359,-54.27349
2023-03-17 16:14:00+00:00,3.0,8.21,5.0,9.68,13.6,47.59359,-54.27349
2023-03-17 16:24:00+00:00,5.0,8.26,3.0,9.18,13.6,47.59359,-54.27349
2023-03-17 16:34:00+00:00,9.0,7.3,7.0,8.65,13.6,47.59359,-54.27349
2023-03-17 16:44:00+00:00,6.0,7.12,5.0,8.0,13.6,47.59359,-54.27349
2023-03-17 16:54:00+00:00,9.0,8.4,15.0,10.22,13.6,47.59359,-54.27349
2023-03-17 17:04:00+00:00,9.0,7.13,14.0,8.5,13.6,47.59359,-54.27349
2023-03-17 17:14:00+00:00,10.0,6.78,16.0,7.93,13.6,47.59359,-54.27349
2023-03-17 17:24:00+00:00,13.0,9.5,16.0,11.07,13.6,47.59359,-54.27349
2023-03-17 17:34:00+00:00,7.0,10.6,4.0,12.58,13.6,47.59359,-54.27349
2023-03-17 17:44:00+00:00,5.0,8.89,5.0,10.99,13.6,47.59359,-54.27349
2023-03-17 17:54:00+00:00,3.0,8.64,2.0,9.94,13.6,47.59359,-54.27349
2023-03-17 18:04:00+00:00,359.0,8.38,0.0,9.59,13.6,47.59359,-54.27349
2023-03-17 18:14:00+00:00,2.0,10.18,5.0,11.83,13.76,47.59359,-54.27349
2023-03-17 18:24:00+00:00,7.0,7.96,15.0,10.01,13.76,47.59359,-54.27349
2023-03-17 18:34:00+00:00,5.0,10.05,10.0,11.8,13.76,47.59359,-54.27349
2023-03-17 18:44:00+00:00,355.0,8.43,355.0,9.29,13.76,47.59359,-54.27349
2023-03-17 18:54:00+00:00,352.0,9.54,353.0,10.46,13.76,47.59359,-54.27349
2023-03-17 19:04:00+00:00,359.0,10.08,359.0,10.81,13.76,47.59359,-54.27349
2023-03-17 19:14:00+00:00,0.0,10.45,2.0,12.6,13.6,47.59359,-54.27349
2023-03-17 19:24:00+00:00,359.0,8.44,357.0,9.94,13.6,47.59359,-54.27349
2023-03-17 19:34:00+00:00,356.0,10.43,358.0,11.94,13.6,47.59359,-54.27349
2023-03-17 19:44:00+00:00,359.0,8.65,0.0,9.91,13.6,47.59359,-54.27349
2023-03-17 19:54:00+00:00,353.0,8.06,357.0,9.17,13.6,47.59359,-54.27349
2023-03-17 20:04:00+00:00,353.0,10.04,353.0,11.28,13.6,47.59359,-54.27349
2023-03-17 20:14:00+00:00,352.0,9.39,353.0,10.86,13.37,47.59359,-54.27349
2023-03-17 20:24:00+00:00,338.0,8.55,334.0,10.29,13.37,47.59359,-54.27349
2023-03-17 20:34:00+00:00,348.0,7.52,345.0,8.47,13.37,47.59359,-54.27349
2023-03-17 20:44:00+00:00,343.0,7.25,341.0,7.91,13.37,47.59359,-54.27349
2023-03-17 20:54:00+00:00,353.0,9.69,350.0,11.05,13.37,47.59359,-54.27349
2023-03-17 21:04:00+00:00,345.0,8.49,354.0,10.78,13.37,47.59359,-54.27349
2023-03-17 21:14:00+00:00,346.0,9.02,349.0,10.89,13.44,47.59359,-54.27349
2023-03-17 21:24:00+00:00,346.0,9.57,343.0,11.26,13.44,47.59359,-54.27349
2023-03-17 21:34:00+00:00,342.0,10.55,344.0,12.64,13.44,47.59359,-54.27349
2023-03-17 21:44:00+00:00,346.0,9.38,344.0,11.13,13.44,47.59359,-54.27349
2023-03-17 21:54:00+00:00,339.0,8.18,342.0,9.83,13.44,47.59359,-54.27349
2023-03-17 22:04:00+00:00,344.0,8.04,350.0,8.75,13.44,47.59359,-54.27349
2023-03-17 22:14:00+00:00,337.0,9.07,332.0,11.53,12.81,47.59359,-54.27349
2023-03-17 22:24:00+00:00,340.0,11.08,346.0,13.54,12.81,47.59359,-54.27349
2023-03-17 22:34:00+00:00,345.0,8.73,346.0,10.45,12.81,47.59359,-54.27349
2023-03-17 22:44:00+00:00,339.0,10.38,341.0,11.73,12.81,47.59359,-54.27349
2023-03-17 22:54:00+00:00,333.0,10.23,328.0,11.68,12.81,47.59359,-54.27349
2023-03-17 23:04:00+00:00,333.0,10.15,341.0,12.3,12.81,47.59359,-54.27349
2023-03-17 23:14:00+00:00,336.0,8.28,336.0,10.12,12.41,47.59359,-54.27349
2023-03-17 23:24:00+00:00,337.0,10.4,327.0,15.0,12.41,47.59359,-54.27349
2023-03-17 23:34:00+00:00,326.0,9.69,318.0,12.18,12.41,47.59359,-54.27349
2023-03-17 23:44:00+00:00,321.0,12.84,326.0,15.26,12.41,47.59359,-54.27349
2023-03-17 23:54:00+00:00,324.0,14.64,324.0,16.08,12.41,47.59359,-54.27349
